Torna al catalogo

CZ-6A DEB

AttivoPO
NORAD 60672·DEBRIS·🇨🇳 China

Lanciato Aug 6, 2024 da Taiyuan Satellite Launch Center

Loading…

Prossimi Passaggi (prossime 24 ore)

TLE

AggiornatoSource: Space-Track

Epoca: Sep 14, 2026, 09:20 UTC

1 60672U 24140BZ  26257.38901167  .00002784  00000-0  29754-3 0  9990
2 60672  88.7409 230.6706 0139728 200.4271 159.1334 14.81456595112984

Traccia CZ-6A DEB in tempo reale con AllMySat

Download on the App Store